Time,TemperatureF,DewpointF,PressureIn,WindDirection,WindDirectionDegrees,WindSpeedMPH,WindSpeedGustMPH,Humidity,HourlyPrecipIn,Conditions,Clouds,dailyrainin,SoftwareType,DateUTC
2013-07-24 00:02:00,57.0,56.0,-100.00,East,100,0.0,3.0,97,-99.99,,,-99.99,,2013-07-24 05:02:00,
2013-07-24 00:33:00,56.0,54.0,-100.00,East,100,0.0,1.0,94,-99.99,,,-99.99,,2013-07-24 05:33:00,
2013-07-24 00:43:00,56.0,54.0,-100.00,East,100,0.0,1.0,94,-99.99,,,-99.99,,2013-07-24 05:43:00,
2013-07-24 00:52:00,56.0,54.0,-100.00,East,100,0.0,1.0,94,-99.99,,,-99.99,,2013-07-24 05:52:00,
2013-07-24 01:01:00,56.0,54.0,-100.00,East,100,0.0,1.0,94,-99.99,,,-99.99,,2013-07-24 06:01:00,
2013-07-24 01:34:00,54.0,53.0,-100.00,East,100,0.0,2.0,99,-99.99,,,-99.99,,2013-07-24 06:34:00,
2013-07-24 01:43:00,54.0,53.0,-100.00,East,100,0.0,2.0,99,-99.99,,,-99.99,,2013-07-24 06:43:00,
2013-07-24 01:53:00,54.0,53.0,-100.00,East,100,0.0,2.0,99,-99.99,,,-99.99,,2013-07-24 06:53:00,
2013-07-24 02:02:00,54.0,53.0,-100.00,East,100,0.0,2.0,99,-99.99,,,-99.99,,2013-07-24 07:02:00,
2013-07-24 03:32:00,52.0,51.0,-100.00,East,100,0.0,0.0,99,-99.99,,,-99.99,,2013-07-24 08:32:00,
2013-07-24 03:43:00,52.0,51.0,-100.00,East,100,0.0,0.0,99,-99.99,,,-99.99,,2013-07-24 08:43:00,
2013-07-24 03:52:00,52.0,51.0,-100.00,East,100,0.0,0.0,99,-99.99,,,-99.99,,2013-07-24 08:52:00,
2013-07-24 04:02:00,52.0,51.0,-100.00,East,100,0.0,0.0,99,-99.99,,,-99.99,,2013-07-24 09:02:00,
2013-07-24 04:32:00,50.0,50.0,-100.00,East,100,0.0,2.0,99,-99.99,,,-99.99,,2013-07-24 09:32:00,
2013-07-24 04:43:00,50.0,50.0,-100.00,East,100,0.0,2.0,99,-99.99,,,-99.99,,2013-07-24 09:43:00,
2013-07-24 04:53:00,50.0,50.0,-100.00,East,100,0.0,2.0,99,-99.99,,,-99.99,,2013-07-24 09:53:00,
2013-07-24 05:02:00,50.0,50.0,-100.00,East,100,0.0,2.0,99,-99.99,,,-99.99,,2013-07-24 10:02:00,
2013-07-24 05:33:00,49.0,49.0,-100.00,East,100,1.0,2.0,99,-99.99,,,-99.99,,2013-07-24 10:33:00,
2013-07-24 05:43:00,49.0,49.0,-100.00,East,100,1.0,2.0,99,-99.99,,,-99.99,,2013-07-24 10:43:00,
2013-07-24 05:53:00,49.0,49.0,-100.00,East,100,1.0,2.0,99,-99.99,,,-99.99,,2013-07-24 10:53:00,
2013-07-24 06:02:00,49.0,49.0,-100.00,East,100,1.0,2.0,99,-99.99,,,-99.99,,2013-07-24 11:02:00,
2013-07-24 06:32:00,48.0,48.0,-100.00,East,100,0.0,0.0,99,-99.99,,,-99.99,,2013-07-24 11:32:00,
2013-07-24 06:44:00,48.0,48.0,-100.00,East,100,0.0,0.0,99,-99.99,,,-99.99,,2013-07-24 11:44:00,
2013-07-24 06:52:00,48.0,48.0,-100.00,East,100,0.0,0.0,99,-99.99,,,-99.99,,2013-07-24 11:52:00,
2013-07-24 07:02:00,48.0,48.0,-100.00,East,100,0.0,0.0,99,-99.99,,,-99.99,,2013-07-24 12:02:00,
2013-07-24 07:32:00,53.0,52.0,-100.00,East,100,0.0,1.0,99,-99.99,,,-99.99,,2013-07-24 12:32:00,
2013-07-24 07:42:00,53.0,52.0,-100.00,East,100,0.0,1.0,99,-99.99,,,-99.99,,2013-07-24 12:42:00,
2013-07-24 07:52:00,53.0,52.0,-100.00,East,100,0.0,1.0,99,-99.99,,,-99.99,,2013-07-24 12:52:00,
2013-07-24 08:02:00,53.0,52.0,-100.00,East,100,0.0,1.0,99,-99.99,,,-99.99,,2013-07-24 13:02:00,
2013-07-24 08:32:00,57.0,56.0,-100.00,East,100,0.0,2.0,95,-99.99,,,-99.99,,2013-07-24 13:32:00,
2013-07-24 08:43:00,57.0,56.0,-100.00,East,100,0.0,2.0,95,-99.99,,,-99.99,,2013-07-24 13:43:00,
2013-07-24 08:53:00,57.0,56.0,-100.00,East,100,0.0,2.0,95,-99.99,,,-99.99,,2013-07-24 13:53:00,
2013-07-24 09:02:00,57.0,56.0,-100.00,East,100,0.0,2.0,95,-99.99,,,-99.99,,2013-07-24 14:02:00,
2013-07-24 09:32:00,61.0,56.0,-100.00,East,100,0.0,2.0,84,-99.99,,,-99.99,,2013-07-24 14:32:00,
2013-07-24 09:43:00,61.0,56.0,-100.00,East,100,0.0,2.0,84,-99.99,,,-99.99,,2013-07-24 14:43:00,
2013-07-24 09:55:00,61.0,56.0,-100.00,East,100,0.0,2.0,84,-99.99,,,-99.99,,2013-07-24 14:55:00,
2013-07-24 10:02:00,61.0,56.0,-100.00,East,100,0.0,2.0,84,-99.99,,,-99.99,,2013-07-24 15:02:00,
2013-07-24 10:33:00,68.0,57.0,-100.00,East,100,1.0,6.0,69,-99.99,,,-99.99,,2013-07-24 15:33:00,
2013-07-24 10:43:00,68.0,57.0,-100.00,East,100,1.0,6.0,69,-99.99,,,-99.99,,2013-07-24 15:43:00,
2013-07-24 10:53:00,68.0,57.0,-100.00,East,100,1.0,6.0,69,-99.99,,,-99.99,,2013-07-24 15:53:00,
2013-07-24 11:02:00,68.0,57.0,-100.00,East,100,1.0,6.0,69,-99.99,,,-99.99,,2013-07-24 16:02:00,
2013-07-24 11:33:00,72.0,50.0,-100.00,East,100,2.0,7.0,45,-99.99,,,-99.99,,2013-07-24 16:33:00,
2013-07-24 11:43:00,72.0,50.0,-100.00,East,100,2.0,7.0,45,-99.99,,,-99.99,,2013-07-24 16:43:00,
2013-07-24 11:53:00,72.0,50.0,-100.00,East,100,2.0,7.0,45,-99.99,,,-99.99,,2013-07-24 16:53:00,
2013-07-24 12:02:00,72.0,50.0,-100.00,East,100,2.0,7.0,45,-99.99,,,-99.99,,2013-07-24 17:02:00,
2013-07-24 12:33:00,72.0,50.0,-100.00,East,100,1.0,6.0,46,-99.99,,,-99.99,,2013-07-24 17:33:00,
2013-07-24 12:43:00,72.0,50.0,-100.00,East,100,1.0,6.0,46,-99.99,,,-99.99,,2013-07-24 17:43:00,
2013-07-24 12:53:00,72.0,50.0,-100.00,East,100,1.0,6.0,46,-99.99,,,-99.99,,2013-07-24 17:53:00,
2013-07-24 13:02:00,72.0,50.0,-100.00,East,100,1.0,6.0,46,-99.99,,,-99.99,,2013-07-24 18:02:00,
2013-07-24 13:33:00,71.0,49.0,-100.00,East,100,2.0,6.0,47,-99.99,,,-99.99,,2013-07-24 18:33:00,
2013-07-24 13:43:00,71.0,49.0,-100.00,East,100,2.0,6.0,47,-99.99,,,-99.99,,2013-07-24 18:43:00,
2013-07-24 13:52:00,71.0,49.0,-100.00,East,100,2.0,6.0,47,-99.99,,,-99.99,,2013-07-24 18:52:00,
2013-07-24 14:02:00,71.0,49.0,-100.00,East,100,2.0,6.0,47,-99.99,,,-99.99,,2013-07-24 19:02:00,
2013-07-24 14:33:00,75.0,51.0,-100.00,East,100,2.0,7.0,43,-99.99,,,-99.99,,2013-07-24 19:33:00,
2013-07-24 14:43:00,75.0,51.0,-100.00,East,100,2.0,7.0,43,-99.99,,,-99.99,,2013-07-24 19:43:00,
2013-07-24 14:53:00,75.0,51.0,-100.00,East,100,2.0,7.0,43,-99.99,,,-99.99,,2013-07-24 19:53:00,
2013-07-24 15:02:00,75.0,51.0,-100.00,East,100,2.0,7.0,43,-99.99,,,-99.99,,2013-07-24 20:02:00,
2013-07-24 15:33:00,75.0,50.0,-100.00,East,100,2.0,6.0,42,-99.99,,,-99.99,,2013-07-24 20:33:00,
2013-07-24 15:43:00,75.0,50.0,-100.00,East,100,2.0,6.0,42,-99.99,,,-99.99,,2013-07-24 20:43:00,
2013-07-24 15:53:00,75.0,50.0,-100.00,East,100,2.0,6.0,42,-99.99,,,-99.99,,2013-07-24 20:53:00,
2013-07-24 16:03:00,75.0,50.0,-100.00,East,100,2.0,6.0,42,-99.99,,,-99.99,,2013-07-24 21:03:00,
2013-07-24 16:32:00,73.0,50.0,-100.00,East,100,3.0,9.0,44,-99.99,,,-99.99,,2013-07-24 21:32:00,
2013-07-24 16:44:00,73.0,50.0,-100.00,East,100,3.0,9.0,44,-99.99,,,-99.99,,2013-07-24 21:44:00,
2013-07-24 16:53:00,73.0,50.0,-100.00,East,100,3.0,9.0,44,-99.99,,,-99.99,,2013-07-24 21:53:00,
2013-07-24 17:02:00,73.0,50.0,-100.00,East,100,3.0,9.0,44,-99.99,,,-99.99,,2013-07-24 22:02:00,
2013-07-24 17:32:00,73.0,52.0,-100.00,East,100,6.0,9.0,47,-99.99,,,-99.99,,2013-07-24 22:32:00,
2013-07-24 17:43:00,73.0,52.0,-100.00,East,100,6.0,9.0,47,-99.99,,,-99.99,,2013-07-24 22:43:00,
2013-07-24 17:53:00,73.0,52.0,-100.00,East,100,6.0,9.0,47,-99.99,,,-99.99,,2013-07-24 22:53:00,
2013-07-24 18:02:00,73.0,52.0,-100.00,East,100,6.0,9.0,47,-99.99,,,-99.99,,2013-07-24 23:02:00,
2013-07-24 18:33:00,73.0,53.0,-100.00,East,100,2.0,6.0,49,-99.99,,,-99.99,,2013-07-24 23:33:00,
2013-07-24 18:43:00,73.0,53.0,-100.00,East,100,2.0,6.0,49,-99.99,,,-99.99,,2013-07-24 23:43:00,
2013-07-24 18:52:00,73.0,53.0,-100.00,East,100,2.0,6.0,49,-99.99,,,-99.99,,2013-07-24 23:52:00,
2013-07-24 19:02:00,73.0,53.0,-100.00,East,100,2.0,6.0,49,-99.99,,,-99.99,,2013-07-25 00:02:00,
2013-07-24 19:33:00,72.0,52.0,-100.00,East,100,2.0,4.0,49,-99.99,,,-99.99,,2013-07-25 00:33:00,
2013-07-24 19:43:00,72.0,52.0,-100.00,East,100,2.0,4.0,49,-99.99,,,-99.99,,2013-07-25 00:43:00,
2013-07-24 19:53:00,72.0,52.0,-100.00,East,100,2.0,4.0,49,-99.99,,,-99.99,,2013-07-25 00:53:00,
2013-07-24 20:02:00,72.0,52.0,-100.00,East,100,2.0,4.0,49,-99.99,,,-99.99,,2013-07-25 01:02:00,
2013-07-24 20:32:00,71.0,53.0,-100.00,East,100,1.0,4.0,53,-99.99,,,-99.99,,2013-07-25 01:32:00,
2013-07-24 20:43:00,71.0,53.0,-100.00,East,100,1.0,4.0,53,-99.99,,,-99.99,,2013-07-25 01:43:00,
2013-07-24 20:53:00,71.0,53.0,-100.00,East,100,1.0,4.0,53,-99.99,,,-99.99,,2013-07-25 01:53:00,
2013-07-24 21:02:00,71.0,53.0,-100.00,East,100,1.0,4.0,53,-99.99,,,-99.99,,2013-07-25 02:02:00,
2013-07-24 21:33:00,66.0,59.0,-100.00,East,100,0.0,3.0,78,-99.99,,,-99.99,,2013-07-25 02:33:00,
2013-07-24 21:43:00,66.0,59.0,-100.00,East,100,0.0,3.0,78,-99.99,,,-99.99,,2013-07-25 02:43:00,
2013-07-24 21:53:00,66.0,59.0,-100.00,East,100,0.0,3.0,78,-99.99,,,-99.99,,2013-07-25 02:53:00,
2013-07-24 22:02:00,66.0,59.0,-100.00,East,100,0.0,3.0,78,-99.99,,,-99.99,,2013-07-25 03:02:00,
2013-07-24 22:40:00,63.0,60.0,-100.00,East,100,0.0,1.0,91,-99.99,,,-99.99,,2013-07-25 03:40:00,
2013-07-24 22:52:00,63.0,60.0,-100.00,East,100,0.0,1.0,91,-99.99,,,-99.99,,2013-07-25 03:52:00,
2013-07-24 23:02:00,63.0,60.0,-100.00,East,100,0.0,1.0,91,-99.99,,,-99.99,,2013-07-25 04:02:00,
2013-07-24 23:33:00,60.0,59.0,-100.00,East,100,0.0,1.0,95,-99.99,,,-99.99,,2013-07-25 04:33:00,
2013-07-24 23:43:00,60.0,59.0,-100.00,East,100,0.0,1.0,95,-99.99,,,-99.99,,2013-07-25 04:43:00,
2013-07-24 23:53:00,60.0,59.0,-100.00,East,100,0.0,1.0,95,-99.99,,,-99.99,,2013-07-25 04:53:00,